EAG5512 SBGR-SBNF

Flight info

Callsign EAG5512
Flight time 0h 44m
Altitude 34000
Route MADNI UZ92 PUBIS
Aircraft B737/M-SDE2E3FGHIRWXY/LB1

Departure

Time 2026-04-20 12:25
Airport São Paulo/Guarulhos–Governor André Franco Montoro International Airport (SBGR)

Arrival

Time 2026-04-20 13:09
Airport Ministro Victor Konder International Airport (SBNF)
Time Latitude Longitude Altitude Speed Heading
2026-04-20 12:06 -23.42839 -46.48062 2460 ft 0 kts 85°
2026-04-20 12:17 -23.42839 -46.48063 2460 ft 2 kts 85°
2026-04-20 12:17 -23.42843 -46.48090 2460 ft 4 kts 72°
2026-04-20 12:17 -23.42851 -46.48117 2460 ft 4 kts 94°
2026-04-20 12:17 -23.42844 -46.48140 2460 ft 4 kts 129°
2026-04-20 12:18 -23.42824 -46.48154 2462 ft 4 kts 170°
2026-04-20 12:18 -23.42806 -46.48157 2460 ft 2 kts 174°
2026-04-20 12:18 -23.42832 -46.48154 2460 ft 4 kts 174°
2026-04-20 12:18 -23.42844 -46.48153 2460 ft 0 kts 174°
2026-04-20 12:20 -23.42849 -46.48153 2460 ft 4 kts 174°
2026-04-20 12:21 -23.42917 -46.48145 2460 ft 14 kts 174°
2026-04-20 12:21 -23.43015 -46.48134 2460 ft 14 kts 174°
2026-04-20 12:21 -23.43108 -46.48138 2460 ft 13 kts 211°
2026-04-20 12:21 -23.43143 -46.48226 2463 ft 13 kts 255°
2026-04-20 12:22 -23.43167 -46.48321 2464 ft 14 kts 254°
2026-04-20 12:22 -23.43199 -46.48381 2464 ft 8 kts 211°
2026-04-20 12:22 -23.43254 -46.48381 2460 ft 10 kts 163°
2026-04-20 12:22 -23.43309 -46.48362 2461 ft 0 kts 162°
2026-04-20 12:23 -23.43328 -46.48356 2465 ft 10 kts 163°
2026-04-20 12:24 -23.43413 -46.48308 2460 ft 15 kts 109°
2026-04-20 12:24 -23.43373 -46.48130 2460 ft 53 kts 73°
2026-04-20 12:24 -23.43172 -46.47391 2458 ft 148 kts 75°
2026-04-20 12:24 -23.42855 -46.46126 3046 ft 184 kts 75°
2026-04-20 12:25 -23.42506 -46.44779 4446 ft 180 kts 72°
2026-04-20 12:25 -23.42120 -46.43477 5631 ft 188 kts 72°
2026-04-20 12:25 -23.41686 -46.42019 6024 ft 216 kts 72°
2026-04-20 12:25 -23.41196 -46.40366 6246 ft 242 kts 73°
2026-04-20 12:26 -23.40644 -46.38511 6522 ft 271 kts 73°
2026-04-20 12:26 -23.40207 -46.36486 7261 ft 278 kts 90°
2026-04-20 12:26 -23.40511 -46.34411 8171 ft 280 kts 110°
2026-04-20 12:26 -23.41169 -46.32412 9161 ft 282 kts 111°
2026-04-20 12:27 -23.41896 -46.30405 10045 ft 288 kts 121°
2026-04-20 12:27 -23.43289 -46.28846 10730 ft 298 kts 150°
2026-04-20 12:27 -23.45340 -46.28133 10965 ft 325 kts 175°
2026-04-20 12:27 -23.47634 -46.28365 11312 ft 346 kts 196°
2026-04-20 12:28 -23.49822 -46.29521 12028 ft 355 kts 216°
2026-04-20 12:28 -23.51522 -46.31481 12961 ft 360 kts 235°
2026-04-20 12:28 -23.52620 -46.33947 13813 ft 365 kts 247°
2026-04-20 12:28 -23.53446 -46.36581 14630 ft 370 kts 249°
2026-04-20 12:29 -23.54220 -46.39275 15384 ft 375 kts 250°
2026-04-20 12:29 -23.55024 -46.42003 16163 ft 378 kts 249°
2026-04-20 12:29 -23.55868 -46.44727 16940 ft 381 kts 248°
2026-04-20 12:29 -23.56752 -46.47469 17697 ft 385 kts 247°
2026-04-20 12:30 -23.57666 -46.50237 18403 ft 388 kts 246°
2026-04-20 12:30 -23.58592 -46.53014 19062 ft 392 kts 246°
2026-04-20 12:30 -23.59520 -46.55787 19703 ft 396 kts 246°
2026-04-20 12:30 -23.60471 -46.58633 20358 ft 399 kts 247°
2026-04-20 12:31 -23.61424 -46.61488 20972 ft 403 kts 247°
2026-04-20 12:31 -23.62396 -46.64374 21550 ft 406 kts 245°
2026-04-20 12:31 -23.63629 -46.67148 22106 ft 406 kts 236°
2026-04-20 12:31 -23.65166 -46.69747 22675 ft 408 kts 234°
2026-04-20 12:32 -23.66730 -46.72352 23194 ft 412 kts 235°
2026-04-20 12:32 -23.68291 -46.74996 23665 ft 416 kts 235°
2026-04-20 12:32 -23.70088 -46.77419 24116 ft 416 kts 221°
2026-04-20 12:32 -23.72429 -46.79274 24613 ft 417 kts 209°
2026-04-20 12:33 -23.75104 -46.80510 25060 ft 420 kts 195°
2026-04-20 12:33 -23.77966 -46.81232 25514 ft 422 kts 192°
2026-04-20 12:33 -23.80855 -46.81887 25925 ft 426 kts 192°
2026-04-20 12:33 -23.83775 -46.82535 26332 ft 429 kts 192°
2026-04-20 12:34 -23.86706 -46.83193 26714 ft 431 kts 192°
2026-04-20 12:34 -23.89618 -46.83861 27098 ft 434 kts 192°
2026-04-20 12:34 -23.92579 -46.84553 27483 ft 436 kts 192°
2026-04-20 12:34 -23.95559 -46.85257 27858 ft 438 kts 192°
2026-04-20 12:35 -23.98548 -46.85969 28251 ft 440 kts 192°
2026-04-20 12:35 -24.01554 -46.86688 28612 ft 442 kts 192°
2026-04-20 12:35 -24.04567 -46.87409 28922 ft 445 kts 192°
2026-04-20 12:35 -24.07600 -46.88135 29251 ft 447 kts 192°
2026-04-20 12:36 -24.10598 -46.88854 29705 ft 446 kts 192°
2026-04-20 12:36 -24.13618 -46.89578 30248 ft 443 kts 192°
2026-04-20 12:36 -24.16618 -46.90297 30833 ft 440 kts 192°
2026-04-20 12:36 -24.19596 -46.91011 31399 ft 437 kts 192°
2026-04-20 12:37 -24.22564 -46.91723 31889 ft 436 kts 192°
2026-04-20 12:37 -24.25520 -46.92432 32201 ft 434 kts 193°
2026-04-20 12:37 -24.31409 -46.93845 32201 ft 435 kts 193°
2026-04-20 12:38 -24.37414 -46.95291 32197 ft 447 kts 193°
2026-04-20 12:38 -24.43527 -46.96762 32149 ft 450 kts 193°
2026-04-20 12:39 -24.52693 -46.98967 32128 ft 449 kts 193°
2026-04-20 12:40 -24.58744 -47.00506 32123 ft 448 kts 198°
2026-04-20 12:40 -24.64387 -47.03376 32131 ft 448 kts 212°
2026-04-20 12:41 -24.69602 -47.07116 32128 ft 448 kts 213°
2026-04-20 12:41 -24.74779 -47.10858 32130 ft 447 kts 212°
2026-04-20 12:42 -24.79995 -47.14590 32136 ft 447 kts 212°
2026-04-20 12:42 -24.85222 -47.18310 32139 ft 447 kts 212°
2026-04-20 12:43 -24.90444 -47.22025 32139 ft 447 kts 212°
2026-04-20 12:43 -24.95669 -47.25749 32139 ft 447 kts 212°
2026-04-20 12:44 -25.00891 -47.29477 32142 ft 447 kts 212°
2026-04-20 12:44 -25.06126 -47.33217 32128 ft 448 kts 212°
2026-04-20 12:45 -25.11354 -47.36955 32113 ft 448 kts 212°
2026-04-20 12:45 -25.16587 -47.40701 32116 ft 448 kts 212°
2026-04-20 12:46 -25.21817 -47.44448 32122 ft 448 kts 212°
2026-04-20 12:46 -25.27011 -47.48165 32117 ft 447 kts 212°
2026-04-20 12:47 -25.32240 -47.51901 32125 ft 447 kts 212°
2026-04-20 12:47 -25.37473 -47.55644 32122 ft 448 kts 213°
2026-04-20 12:48 -25.42700 -47.59392 32128 ft 447 kts 213°
2026-04-20 12:48 -25.47915 -47.63149 32147 ft 447 kts 213°
2026-04-20 12:49 -25.53125 -47.66906 32152 ft 446 kts 213°
2026-04-20 12:49 -25.58299 -47.70641 32158 ft 446 kts 213°
2026-04-20 12:50 -25.63499 -47.74400 32158 ft 446 kts 213°
2026-04-20 12:50 -25.68729 -47.78185 31228 ft 456 kts 213°
2026-04-20 12:50 -25.71380 -47.80104 30540 ft 450 kts 213°
2026-04-20 12:51 -25.73975 -47.81983 29860 ft 444 kts 213°
2026-04-20 12:51 -25.76542 -47.83844 29149 ft 438 kts 213°
2026-04-20 12:51 -25.79079 -47.85684 28432 ft 433 kts 213°
2026-04-20 12:51 -25.81591 -47.87506 27708 ft 428 kts 213°
2026-04-20 12:52 -25.84075 -47.89309 26987 ft 424 kts 213°
2026-04-20 12:52 -25.86535 -47.91096 26272 ft 420 kts 213°
2026-04-20 12:52 -25.88965 -47.92862 25552 ft 416 kts 213°
2026-04-20 12:52 -25.91378 -47.94617 24834 ft 411 kts 213°
2026-04-20 12:53 -25.93760 -47.96350 24124 ft 407 kts 213°
2026-04-20 12:53 -25.96115 -47.98064 23418 ft 403 kts 213°
2026-04-20 12:53 -25.98449 -47.99763 22715 ft 399 kts 213°
2026-04-20 12:53 -26.00759 -48.01446 22018 ft 395 kts 212°
2026-04-20 12:54 -26.03043 -48.03117 21319 ft 391 kts 213°
2026-04-20 12:54 -26.05178 -48.05007 20362 ft 395 kts 221°
2026-04-20 12:54 -26.07119 -48.07094 19615 ft 392 kts 223°
2026-04-20 12:54 -26.09026 -48.09234 18902 ft 387 kts 223°
2026-04-20 12:55 -26.10920 -48.11341 18213 ft 382 kts 223°
2026-04-20 12:55 -26.12815 -48.13401 17527 ft 377 kts 222°
2026-04-20 12:55 -26.14701 -48.15418 16858 ft 373 kts 221°
2026-04-20 12:55 -26.16565 -48.17400 16206 ft 368 kts 221°
2026-04-20 12:56 -26.18430 -48.19316 15558 ft 362 kts 217°
2026-04-20 12:56 -26.20482 -48.20906 14941 ft 356 kts 211°
2026-04-20 12:56 -26.22581 -48.22349 14296 ft 352 kts 210°
2026-04-20 12:56 -26.24672 -48.23749 13661 ft 349 kts 210°
2026-04-20 12:57 -26.26742 -48.25140 13014 ft 346 kts 210°
2026-04-20 12:57 -26.28785 -48.26528 12387 ft 342 kts 210°
2026-04-20 12:57 -26.30804 -48.27915 11759 ft 339 kts 210°
2026-04-20 12:57 -26.32773 -48.29278 11142 ft 336 kts 210°
2026-04-20 12:58 -26.34747 -48.30651 10711 ft 328 kts 210°
2026-04-20 12:58 -26.36633 -48.31969 10569 ft 312 kts 210°
2026-04-20 12:58 -26.38427 -48.33225 10426 ft 297 kts 210°
2026-04-20 12:58 -26.40145 -48.34427 10297 ft 284 kts 210°
2026-04-20 12:59 -26.41764 -48.35561 10175 ft 272 kts 210°
2026-04-20 12:59 -26.43344 -48.36668 9923 ft 266 kts 210°
2026-04-20 12:59 -26.44908 -48.37762 9602 ft 264 kts 210°
2026-04-20 12:59 -26.46461 -48.38849 9249 ft 263 kts 210°
2026-04-20 13:00 -26.48007 -48.39933 8884 ft 262 kts 210°
2026-04-20 13:00 -26.49554 -48.41017 8525 ft 262 kts 210°
2026-04-20 13:00 -26.50575 -48.41733 8290 ft 262 kts 210°
2026-04-20 13:00 -26.52619 -48.43167 7819 ft 261 kts 210°
2026-04-20 13:01 -26.54152 -48.44243 7457 ft 260 kts 211°
2026-04-20 13:01 -26.55687 -48.45322 7070 ft 261 kts 211°
2026-04-20 13:01 -26.56736 -48.46059 6725 ft 265 kts 211°
2026-04-20 13:01 -26.58296 -48.47155 6335 ft 265 kts 211°
2026-04-20 13:02 -26.59834 -48.48237 5974 ft 264 kts 211°
2026-04-20 13:02 -26.61385 -48.49329 5604 ft 263 kts 211°
2026-04-20 13:02 -26.62932 -48.50417 5233 ft 263 kts 211°
2026-04-20 13:02 -26.64480 -48.51505 4877 ft 262 kts 211°
2026-04-20 13:03 -26.66021 -48.52587 4518 ft 260 kts 211°
2026-04-20 13:03 -26.67530 -48.53651 4347 ft 252 kts 211°
2026-04-20 13:03 -26.69078 -48.54466 4194 ft 241 kts 189°
2026-04-20 13:03 -26.70689 -48.54356 4061 ft 229 kts 165°
2026-04-20 13:04 -26.72125 -48.53554 3601 ft 226 kts 146°
2026-04-20 13:04 -26.73380 -48.52597 3405 ft 209 kts 146°
2026-04-20 13:04 -26.74513 -48.51731 3321 ft 192 kts 146°
2026-04-20 13:04 -26.75596 -48.50904 3278 ft 183 kts 146°
2026-04-20 13:05 -26.76613 -48.50132 3242 ft 171 kts 145°
2026-04-20 13:05 -26.77664 -48.49596 3193 ft 166 kts 180°
2026-04-20 13:05 -26.78683 -48.50111 3145 ft 169 kts 229°
2026-04-20 13:05 -26.79414 -48.51179 2909 ft 174 kts 233°
2026-04-20 13:06 -26.80111 -48.52270 2660 ft 169 kts 234°
2026-04-20 13:06 -26.80771 -48.53335 2434 ft 164 kts 235°
2026-04-20 13:06 -26.81411 -48.54378 2194 ft 159 kts 235°
2026-04-20 13:06 -26.82012 -48.55365 2000 ft 149 kts 236°
2026-04-20 13:07 -26.82570 -48.56277 1795 ft 140 kts 236°
2026-04-20 13:07 -26.83104 -48.57155 1627 ft 135 kts 236°
2026-04-20 13:07 -26.83634 -48.58024 1434 ft 132 kts 236°
2026-04-20 13:07 -26.84141 -48.58857 1262 ft 131 kts 237°
2026-04-20 13:08 -26.84654 -48.59700 1080 ft 131 kts 237°
2026-04-20 13:08 -26.85166 -48.60541 901 ft 131 kts 237°
2026-04-20 13:08 -26.85678 -48.61381 723 ft 130 kts 237°
2026-04-20 13:08 -26.86190 -48.62220 543 ft 131 kts 236°
2026-04-20 13:09 -26.86703 -48.63062 357 ft 132 kts 238°
2026-04-20 13:09 -26.87221 -48.63910 176 ft 132 kts 235°
2026-04-20 13:09 -26.87736 -48.64762 36 ft 131 kts 233°
2026-04-20 13:09 -26.88104 -48.65361 28 ft 42 kts 236°
2026-04-20 13:10 -26.88142 -48.65424 28 ft 5 kts 236°
2026-04-20 13:10 -26.88169 -48.65469 28 ft 8 kts 242°
2026-04-20 13:10 -26.88192 -48.65525 29 ft 6 kts 199°
2026-04-20 13:10 -26.88196 -48.65509 29 ft 4 kts 55°
2026-04-20 13:11 -26.88156 -48.65448 28 ft 14 kts 54°
2026-04-20 13:11 -26.88091 -48.65340 28 ft 19 kts 56°
2026-04-20 13:11 -26.88014 -48.65215 27 ft 19 kts 55°
2026-04-20 13:11 -26.87946 -48.65103 28 ft 15 kts 55°
2026-04-20 13:12 -26.87911 -48.65024 29 ft 7 kts 96°
2026-04-20 13:12 -26.87939 -48.64988 29 ft 0 kts 146°
2026-04-20 13:12 -26.87953 -48.64978 28 ft 3 kts 148°
2026-04-20 13:13 -26.87984 -48.64970 28 ft 5 kts 164°
2026-04-20 13:13 -26.88013 -48.64950 28 ft 3 kts 146°
2026-04-20 13:13 -26.88021 -48.64944 28 ft 0 kts 146°